| time (UTC) | temp F | wind direction | speed MPH | gust MPH | rain 1hr in | rain 24hr in | rain mn in | humidity % | barometer mb |
| 20260503050115 | 35 | 196 | 5.0 | 0.0 | 0.00 | 0.00 | 0.00 | 70 | 981.7 |
| 20260503044545 | 35 | 198 | 5.0 | 0.0 | 0.00 | 0.00 | 0.00 | 66 | 982.0 |
| 20260503043105 | 35 | 200 | 5.0 | 0.0 | 0.00 | 0.00 | 0.00 | 66 | 981.5 |
| 20260503041546 | 36 | 200 | 5.0 | 0.0 | 0.00 | 0.00 | 0.00 | 66 | 981.5 |
| 20260503040117 | 36 | 207 | 5.0 | 0.0 | 0.00 | 0.00 | 0.00 | 66 | 981.5 |
| 20260503034545 | 36 | 216 | 4.0 | 0.0 | 0.00 | 0.00 | 0.00 | 63 | 982.5 |
| 20260503033106 | 36 | 218 | 5.0 | 0.0 | 0.00 | 0.00 | 0.00 | 64 | 982.8 |
| 20260503031545 | 37 | 214 | 5.0 | 0.0 | 0.00 | 0.00 | 0.00 | 64 | 982.8 |
| 20260503030116 | 38 | 219 | 5.0 | 0.0 | 0.00 | 0.00 | 0.00 | 64 | 982.8 |
| 20260503024545 | 38 | 218 | 5.0 | 0.0 | 0.00 | 0.00 | 0.00 | 61 | 983.2 |
| 20260503023105 | 38 | 225 | 4.0 | 0.0 | 0.00 | 0.00 | 0.00 | 66 | 983.3 |
| 20260503021545 | 38 | 230 | 5.0 | 0.0 | 0.00 | 0.00 | 0.00 | 66 | 983.2 |
| 20260503020115 | 39 | 234 | 5.0 | 0.0 | 0.00 | 0.00 | 0.00 | 66 | 983.2 |
| 20260503014545 | 39 | 240 | 5.0 | 0.0 | 0.00 | 0.00 | 0.00 | 61 | 982.7 |
| 20260503013103 | 39 | 245 | 5.0 | 0.0 | 0.00 | 0.00 | 0.00 | 61 | 982.7 |
| 20260503011545 | 40 | 252 | 4.0 | 0.0 | 0.00 | 0.00 | 0.00 | 61 | 982.7 |
| 20260503010113 | 41 | 257 | 5.0 | 0.0 | 0.00 | 0.00 | 0.00 | 61 | 982.7 |
| 20260503004545 | 41 | 262 | 4.0 | 0.0 | 0.00 | 0.00 | 0.00 | 51 | 983.4 |
| 20260503003059 | 42 | 259 | 3.0 | 0.0 | 0.00 | 0.00 | 0.00 | 51 | 983.6 |
| 20260503001545 | 43 | 286 | 3.0 | 0.0 | 0.00 | 0.00 | 0.00 | 51 | 983.6 |
| 20260503000116 | 43 | 292 | 4.0 | 0.0 | 0.00 | 0.00 | 0.00 | 51 | 983.6 |
| 20260502234546 | 44 | 296 | 6.0 | 0.0 | 0.00 | 0.00 | 0.00 | 42 | 983.4 |
| 20260502233058 | 45 | 283 | 6.0 | 0.0 | 0.00 | 0.00 | 0.00 | 44 | 983.5 |
| 20260502231546 | 45 | 285 | 7.0 | 0.0 | 0.00 | 0.00 | 0.00 | 44 | 983.5 |
| 20260502230113 | 46 | 286 | 8.0 | 0.0 | 0.00 | 0.00 | 0.00 | 44 | 983.5 |
| 20260502224546 | 46 | 285 | 9.0 | 0.0 | 0.00 | 0.00 | 0.00 | 43 | 983.9 |
| 20260502223104 | 46 | 283 | 10.0 | 0.0 | 0.00 | 0.00 | 0.00 | 44 | 984.6 |
| 20260502221547 | 46 | 284 | 11.0 | 0.0 | 0.00 | 0.00 | 0.00 | 44 | 984.6 |
| 20260502220113 | 46 | 283 | 10.0 | 0.0 | 0.00 | 0.00 | 0.00 | 44 | 984.6 |
| 20260502214546 | 46 | 285 | 11.0 | 0.0 | 0.00 | 0.00 | 0.00 | 46 | 984.7 |
| 20260502213104 | 46 | 280 | 10.0 | 0.0 | 0.00 | 0.00 | 0.00 | 43 | 984.3 |
| 20260502211546 | 46 | 277 | 10.0 | 0.0 | 0.00 | 0.00 | 0.00 | 43 | 984.3 |
| 20260502210115 | 46 | 277 | 10.0 | 0.0 | 0.00 | 0.00 | 0.00 | 43 | 984.3 |
| 20260502204546 | 46 | 277 | 11.0 | 0.0 | 0.00 | 0.00 | 0.00 | 39 | 984.7 |
| 20260502203104 | 47 | 280 | 10.0 | 0.0 | 0.00 | 0.00 | 0.00 | 39 | 985.2 |
| 20260502201546 | 46 | 282 | 10.0 | 0.0 | 0.00 | 0.00 | 0.00 | 39 | 985.2 |
| 20260502200112 | 46 | 282 | 10.0 | 0.0 | 0.00 | 0.00 | 0.00 | 39 | 985.2 |
| 20260502194546 | 46 | 284 | 11.0 | 0.0 | 0.00 | 0.00 | 0.00 | 40 | 985.3 |
| 20260502193059 | 46 | 287 | 11.0 | 0.0 | 0.00 | 0.00 | 0.00 | 40 | 985.3 |
| 20260502191546 | 47 | 287 | 12.0 | 0.0 | 0.00 | 0.00 | 0.00 | 40 | 985.3 |
| 20260502190114 | 46 | 286 | 12.0 | 0.0 | 0.00 | 0.00 | 0.00 | 40 | 985.3 |
| 20260502184546 | 46 | 288 | 12.0 | 0.0 | 0.00 | 0.00 | 0.00 | 49 | 985.0 |
| 20260502183105 | 46 | 291 | 12.0 | 0.0 | 0.00 | 0.00 | 0.00 | 50 | 985.1 |
| 20260502181545 | 45 | 290 | 11.0 | 0.0 | 0.00 | 0.00 | 0.00 | 50 | 985.1 |
| 20260502180118 | 45 | 290 | 11.0 | 0.0 | 0.00 | 0.00 | 0.00 | 50 | 985.1 |
| 20260502170110 | 45 | 285 | 9.0 | 0.0 | 0.00 | 0.00 | 0.00 | 46 | 985.6 |
| 20260502163106 | 44 | 279 | 8.0 | 0.0 | 0.00 | 0.00 | 0.00 | 46 | 984.9 |
| 20260502161546 | 44 | 281 | 7.0 | 0.0 | 0.00 | 0.00 | 0.00 | 46 | 984.9 |
| 20260502160116 | 43 | 283 | 7.0 | 0.0 | 0.00 | 0.00 | 0.00 | 46 | 984.9 |
| 20260502151546 | 42 | 294 | 7.0 | 0.0 | 0.00 | 0.00 | 0.00 | 53 | 984.9 |
| 20260502150118 | 41 | 297 | 6.0 | 0.0 | 0.00 | 0.00 | 0.00 | 53 | 984.9 |
| 20260502140122 | 39 | 320 | 7.0 | 0.0 | 0.00 | 0.00 | 0.00 | 63 | 985.5 |
| 20260502130114 | 36 | 324 | 6.0 | 0.0 | 0.00 | 0.00 | 0.00 | 75 | 985.1 |
| 20260502123104 | 35 | 315 | 5.0 | 0.0 | 0.00 | 0.00 | 0.00 | 77 | 985.1 |
| 20260502121546 | 34 | 318 | 5.0 | 0.0 | 0.00 | 0.00 | 0.00 | 77 | 985.1 |
| 20260502120125 | 33 | 313 | 5.0 | 0.0 | 0.00 | 0.00 | 0.00 | 77 | 985.1 |
| 20260502114546 | 33 | 307 | 4.0 | 0.0 | 0.00 | 0.00 | 0.00 | 83 | 984.7 |
| 20260502113108 | 32 | 324 | 4.0 | 0.0 | 0.00 | 0.00 | 0.00 | 81 | 984.8 |
| 20260502111546 | 32 | 322 | 3.0 | 0.0 | 0.00 | 0.00 | 0.00 | 81 | 984.8 |
| 20260502110115 | 32 | 317 | 4.0 | 0.0 | 0.00 | 0.00 | 0.00 | 81 | 984.8 |
| 20260502104545 | 31 | 313 | 4.0 | 0.0 | 0.00 | 0.00 | 0.00 | 82 | 984.6 |
| 20260502103104 | 31 | 322 | 3.0 | 0.0 | 0.00 | 0.00 | 0.00 | 82 | 984.9 |
| 20260502101546 | 32 | 318 | 3.0 | 0.0 | 0.00 | 0.00 | 0.00 | 82 | 984.9 |
| 20260502100115 | 31 | 320 | 3.0 | 0.0 | 0.00 | 0.00 | 0.00 | 82 | 984.9 |
| 20260502090114 | 31 | 309 | 4.0 | 0.0 | 0.00 | 0.00 | 0.00 | 85 | 984.5 |
| 20260502070114 | 32 | 313 | 5.0 | 0.0 | 0.00 | 0.00 | 0.00 | 80 | 983.5 |
| 20260502064546 | 32 | 315 | 5.0 | 0.0 | 0.00 | 0.00 | 0.00 | 78 | 984.6 |
| 20260502063105 | 32 | 309 | 5.0 | 0.0 | 0.00 | 0.00 | 0.00 | 79 | 984.6 |
| 20260502061545 | 32 | 304 | 5.0 | 0.0 | 0.00 | 0.00 | 0.00 | 79 | 984.6 |
| 20260502060127 | 32 | 306 | 6.0 | 0.0 | 0.00 | 0.00 | 0.00 | 79 | 984.6 |
| 20260502054546 | 32 | 308 | 6.0 | 0.0 | 0.00 | 0.00 | 0.00 | 77 | 983.7 |
| 20260502053105 | 32 | 304 | 6.0 | 0.0 | 0.00 | 0.00 | 0.00 | 77 | 984.2 |
| 20260502051545 | 33 | 303 | 7.0 | 0.0 | 0.00 | 0.00 | 0.00 | 77 | 984.2 |